Weather History for Missoula, MT

Change the Weather History Date:

Thursday, April 19, 2012

  Actual Average Record
Temperature  
Mean Temperature 47 °F 46 °F  
Max Temperature 59 °F 59 °F 83 °F (1910)
Min Temperature 34 °F 33 °F 14 °F (1951)
Degree Days  
Heating Degree Days 18 19  
Month to date heating degree days 394 390  
Since 1 July heating degree days 6307 6573  
Cooling Degree Days 0 0  
Month to date cooling degree days 0 0  
Year to date cooling degree days 0 0  
Moisture  
Dew Point 32 °F    
Average Humidity 62    
Maximum Humidity 96    
Minimum Humidity 28    
Precipitation  
Precipitation 0.04 in 0.04 in 0.43 in (1984)
Month to date precipitation 0.32 0.76  
Year to date precipitation 3.95 3.31  
Snow  
Snow 0.00 in - - ()
Month to date snowfall T  
Year to date snowfall 28.9  
Since 1 July snowfall 39.8  
Snow Depth 0.00 in    
Sea Level Pressure  
Sea Level Pressure 30.09 in    
Wind  
Wind Speed 5 mph (NW)    
Max Wind Speed 16 mph    
Max Gust Speed 23 mph    
Visibility 8 miles    
Events Rain    
T = Trace of Precipitation, MM = Missing Value Source: NWS Daily Summary

Daily Weather History Graph

Daily Weather History Graph

Search for Another Location

Airport:

Trip Planner

Search our weather history database for the weather conditions in past years. The results will help you decide how hot, cold, wet, or windy it might be!

Date:

Astronomy

Apr. 19, 2012 Rise Set
Actual Time 6:40 AM MDT 8:31 PM MDT
Civil Twilight 6:08 AM MDT 9:03 PM MDT
Nautical Twilight 5:28 AM MDT 9:43 PM MDT
Astronomical Twilight 4:44 AM MDT 10:27 PM MDT
Moon 5:40 AM MDT (4/19) 7:21 PM MDT (4/19)
Length of Visible Light 14h 55m
Length of Day
13h 50m
Waning Crescent, 2% of the Moon is Illuminated
Apr 19
Waning Crescent
Apr 21
New
Apr 29
First Quarter
May 5
Full
May 12
Last Quarter

Hourly Weather History & Observations

Time (MDT) Temp. Windchill Dew Point Humidity Pressure Visibility Wind Dir Wind Speed Gust Speed Precip Events Conditions
12:53 AM 39.9 °F 35.8 °F 34.0 °F 79% 30.03 in 10.0 mi West 5.8 mph - N/A   Overcast
1:53 AM 39.9 °F - 35.1 °F 83% 30.04 in 10.0 mi Calm Calm - N/A   Overcast
2:41 AM 39.2 °F 35.9 °F 35.6 °F 87% 30.03 in 7.0 mi WSW 4.6 mph - 0.01 in Rain Light Rain
2:51 AM 39.2 °F - 35.6 °F 87% 30.03 in 8.0 mi Calm Calm - 0.02 in Rain Light Rain
2:53 AM 39.0 °F - 36.0 °F 89% 30.06 in 8.0 mi Calm Calm - 0.02 in Rain Light Rain
3:26 AM 39.2 °F 35.9 °F 37.4 °F 93% 30.03 in 10.0 mi NE 4.6 mph - 0.02 in Rain Light Rain
3:53 AM 41.0 °F 39.0 °F 36.0 °F 82% 30.05 in 10.0 mi NNE 3.5 mph - 0.02 in   Overcast
4:49 AM 35.6 °F 31.7 °F 33.8 °F 93% 30.04 in 1.5 mi West 4.6 mph - N/A   Scattered Clouds
4:51 AM 35.6 °F 31.7 °F 33.8 °F 93% 30.04 in 1.0 mi WNW 4.6 mph - N/A   Scattered Clouds
4:53 AM 35.1 °F 31.0 °F 34.0 °F 96% 30.07 in 0.8 mi WNW 4.6 mph - N/A   Scattered Clouds
5:05 AM 35.6 °F - 35.6 °F 100% 30.04 in 1.2 mi Calm Calm - N/A   Mostly Cloudy
5:14 AM 37.4 °F - 35.6 °F 93% 30.04 in 1.5 mi Calm Calm - N/A   Overcast
5:21 AM 37.4 °F - 35.6 °F 93% 30.04 in 3.0 mi Calm Calm - N/A   Overcast
5:53 AM 35.1 °F 31.0 °F 34.0 °F 96% 30.08 in 10.0 mi North 4.6 mph - N/A   Scattered Clouds
6:53 AM 34.0 °F 29.8 °F 32.0 °F 92% 30.09 in 10.0 mi WNW 4.6 mph - N/A   Partly Cloudy
7:16 AM 33.8 °F 29.6 °F 33.8 °F 100% 30.07 in 2.5 mi WSW 4.6 mph - N/A   Partly Cloudy
7:18 AM 33.8 °F 30.8 °F 33.8 °F 100% 30.07 in 1.2 mi WSW 3.5 mph - N/A   Scattered Clouds
7:22 AM 33.8 °F - 33.8 °F 100% 30.07 in 0.8 mi Calm Calm - N/A   Scattered Clouds
7:31 AM 35.6 °F - 33.8 °F 93% 30.07 in 1.2 mi Calm Calm - N/A   Mostly Cloudy
7:34 AM 35.6 °F 32.8 °F 33.8 °F 93% 30.07 in 2.5 mi NNW 3.5 mph - N/A   Mostly Cloudy
7:41 AM 37.4 °F 34.9 °F 35.6 °F 93% 30.07 in 10.0 mi NNE 3.5 mph - N/A   Mostly Cloudy
7:53 AM 37.9 °F - 34.0 °F 86% 30.12 in 10.0 mi Calm Calm - N/A   Mostly Cloudy
8:34 AM 39.2 °F - 35.6 °F 87% 30.09 in 10.0 mi Calm Calm - N/A   Partly Cloudy
8:48 AM 41.0 °F 39.0 °F 35.6 °F 81% 30.09 in 10.0 mi West 3.5 mph - N/A   Mostly Cloudy
8:53 AM 41.0 °F - 36.0 °F 82% 30.14 in 10.0 mi Calm Calm - N/A   Scattered Clouds
9:17 AM 41.0 °F - 35.6 °F 81% 30.10 in 10.0 mi Calm Calm - N/A   Partly Cloudy
9:53 AM 42.1 °F 40.2 °F 37.0 °F 82% 30.15 in 10.0 mi SW 3.5 mph - N/A   Partly Cloudy
10:53 AM 48.2 °F - 32.0 °F 54% 30.11 in 10.0 mi NNW 8.1 mph - N/A   Clear
11:53 AM 48.9 °F - 27.0 °F 43% 30.15 in 10.0 mi NW 9.2 mph - N/A   Mostly Cloudy
12:53 PM 52.0 °F - 27.0 °F 38% 30.14 in 10.0 mi North 6.9 mph - N/A   Overcast
1:53 PM 54.0 °F - 26.1 °F 34% 30.13 in 10.0 mi WNW 10.4 mph 18.4 mph N/A   Scattered Clouds
2:53 PM 54.0 °F - 24.1 °F 31% 30.12 in 10.0 mi NE 3.5 mph - N/A   Partly Cloudy
3:53 PM 55.9 °F - 24.1 °F 29% 30.11 in 10.0 mi Variable 6.9 mph - N/A   Mostly Cloudy
4:53 PM 57.9 °F - 24.1 °F 27% 30.11 in 10.0 mi NW 11.5 mph 20.7 mph N/A   Clear
5:53 PM 57.0 °F - 24.1 °F 28% 30.11 in 10.0 mi NNW 10.4 mph 17.3 mph N/A   Clear
6:53 PM 55.9 °F - 24.1 °F 29% 30.12 in 10.0 mi West 8.1 mph - N/A   Clear
7:53 PM 53.1 °F - 27.0 °F 37% 30.12 in 10.0 mi WNW 6.9 mph - N/A   Overcast
8:53 PM 52.0 °F - 27.0 °F 38% 30.13 in 10.0 mi NW 3.5 mph - N/A   Overcast
9:53 PM 51.1 °F - 28.9 °F 43% 30.13 in 10.0 mi NNW 3.5 mph - N/A   Overcast
10:53 PM 51.1 °F - 28.9 °F 43% 30.11 in 10.0 mi Calm Calm - N/A   Overcast
11:53 PM 48.9 °F - 30.9 °F 50% 30.12 in 10.0 mi North 5.8 mph - N/A   Overcast